Flag for Ecuador Weather past 2 weeks in Guayaquil, Ecuador

Now
77 °F

Passing clouds.


Feels Like: 78 °F
Forecast: 76 / 89 °F
Wind: 8 mph from Southwest

Location: Guayaquil / Simon Bolivar

Current Time: Apr 28, 2015 at 12:29:21 AM

Latest Report: Apr 28, 2015 at 12:00 AM


Visibility: N/A

Pressure: 29.80 "Hg

Humidity: 83%

Dew point: 72 °F

Location of GuayaquilLocation

Historic Weather in Guayaquil — Graph

°F

Guayaquil temperature yesterday

Maximum temperature yesterday: 84 °F (at 11:00 AM)
Minimum temperature yesterday: 75 °F (at 5:00 AM)
Average temperature yesterday: 80 °F

Past Weeks' High & Low Weather Summary

 TemperatureHumidityPressure
High91 °F (Apr 20, 4:00 PM)100% (Apr 14, 6:00 AM)29.95 "Hg (Apr 14, 6:00 AM)
Low75 °F (Apr 14, 12:00 AM)52% (Apr 26, 1:00 PM)29.30 "Hg (Apr 26, 7:00 PM)
Average82 °F78%29.81 "Hg
* Reported Apr 12 11:00 PM — Apr 27 11:00 PM, Guayaquil, Weather by CustomWeather, © 2015

Note: Actual official high and low records may vary slightly from our data, if they occured in-between our weather recording intervals... More about our weather records

Advertising

Guayaquil weather history for previous 24 hours

 ConditionsComfort  
Time TempWeatherWind HumidityBarometerVisibility
11:00 PM
Mon, Apr 27
77 °FPassing clouds.9 mph79%29.80 "HgN/A
10:00 PM79 °FPassing clouds.8 mph74%29.80 "HgN/A
9:00 PM81 °FPassing clouds.12 mph66%29.77 "HgN/A
8:00 PM81 °FPassing clouds.9 mph70%29.77 "HgN/A
7:00 PM82 °FPassing clouds.9 mph70%29.74 "HgN/A
6:00 PM84 °FBroken clouds.8 mph66%29.71 "HgN/A
5:00 PM84 °FPartly sunny.7 mph74%29.68 "HgN/A
4:00 PM84 °FPartly sunny.6 mph70%29.68 "HgN/A
3:00 PM84 °FPartly sunny.5 mph70%29.71 "HgN/A
2:00 PM84 °FPartly sunny.6 mph70%29.71 "HgN/A
1:00 PM84 °FBroken clouds.5 mph70%29.74 "HgN/A
12:00 PM84 °FBroken clouds.2 mph70%29.77 "HgN/A
11:00 AM84 °FPartly sunny.3 mph70%29.77 "HgN/A
10:00 AM82 °FPartly sunny.5 mph74%29.80 "HgN/A
9:00 AM81 °FPartly sunny.3 mph74%29.80 "HgN/A
8:00 AM79 °FScattered clouds.2 mph84%29.77 "HgN/A
7:00 AM77 °FPartly sunny.6 mph83%29.77 "HgN/A
6:00 AM75 °FPartly cloudy.5 mph94%29.74 "HgN/A
5:00 AM75 °FPartly cloudy.5 mph94%29.74 "HgN/A
4:00 AM77 °FPartly cloudy.3 mph83%29.74 "HgN/A
3:00 AM77 °FPartly cloudy.7 mph83%29.74 "HgN/A
2:00 AM77 °FPartly cloudy.5 mph83%29.77 "HgN/A
1:00 AM77 °FPassing clouds.8 mph89%29.77 "HgN/A
12:00 AM77 °FPassing clouds.9 mph89%29.77 "HgN/A
Weather by CustomWeather, © 2015

See weather overviewHow to use our weather pages